User: anonymous   Login
Location: Unspecified
(0.0000°N, 0.0000°E)
Time: 03:37:06
(UTC+00:00)
Language:

EGG - Orbit

View from above orbital plane
View from above orbital plane
View from above satellite
View from above satellite

Ground track
Ground track

The orbit data is extracted from the following two-line orbital elements,

1 41933U 98067KV  17112.79911637 +.00034245 +00000-0 +45229-3 0  9998
2 41933 051.6400 312.9370 0005859 071.7482 288.4147 15.58017616014907
Epoch (UTC): 22 April 2017 19:10:43
Eccentricity: 0.0005859
inclination: 51.6400°
perigee height: 389 km
apogee height: 397 km
right ascension of ascending node: 312.9370°
argument of perigee: 71.7482°
revolutions per day: 15.58017616
mean anomaly at epoch: 288.4147°
orbit number at epoch: 1490

The dashed part of the orbit path shows where the satellite is in the earth's shadow,  

DLR